Location: Munkebjergskolens Observatorium
(55.3864°N, 10.3987°E)
Time: 21:57:55
(UTC+01:00)

DELTA 1 DEB - Pass Details

Date: 06 December 2023
Orbit: 783 x 826 km, 98.9° (Epoch: 04 March)

Event Time Altitude Azimuth Distance (km) Brightness Sun altitude
Rises 05:09:50 0° 30° (NNE) 3,373 ? -26.7°
Reaches altitude 10° 05:14:54 10° 71° (ENE) 2,438 ? -25.9°
Maximum altitude 05:15:41 10° 80° (E) 2,417 ? -25.8°
Drops below altitude 10° 05:16:28 10° 88° (E) 2,437 ? -25.7°
Sets 05:21:31 0° 129° (SE) 3,362 ? -25.0°
